SCP
0 0 0 0 0 0 0 0 0 0 0 0 0 0 0 0 0 0 0 0 0 -0 -0 -0 0 0 -0 -0 0 0 0 0
-0 0 0 0 0 0 0 0 0 0 0 0 0 0 0 0 0 0 0 0 0 -0 -0 -0 -0 -0 -0 0 -0 0 0 0
-0 0 0 0 0 0 0 0 0 0 0 0 0 0 0 0 0 0 0 0 -0 -0 -0 -0 -0 -0 0 0 0 0 0 0
-0 0 0 0 0 0 0 0 0 0 0 0 0 0 0 0 0 -0 -0 -0 -0 -0 -0 -0 -0 -0 -0 0 -0 0 0 0
0 0 0 0 0 0 0 0 0 0 0 0 0 0 0 0 0 0 -0 -0 -0 -0 -0 -0 -0 -0 -0 0 0 0 0 0
-0 -0 0 0 0 0 0 0 0 0 0 0 0 0 0 0 0 0 0 0 0 0 0 0 0 -0 -0 -0 0 0 0 0
-0 -0 0 0 0 0 0 0 0 0 0 0 0 0 0 0 0 0 0 0 0 -0 0 0 0 -0 -0 -0 -0 0 0 0
-0 -0 0 0 0 0 0 0 0 0 0 0 0 0 0 0 0 0 0 0 0 0 0 0 0 0 -0 -0 0 0 -0 0
0 -0 -0 0 0 0 0 0 0 0 0 0 0 0 0 0 0 0 0 0 0 0 0 0 0 0 0 0 0 0 0 0
0 -0 0 0 0 0 0 0 0 0 0 0 0 0 0 0 0 0 0 0 0 0 0 0 0 0 0 0 0 -0 -0 -0
-0 0 0 0 0 0 0 0 0 0 0 0 0 0 0 0 0 0 0 0 0 0 0 0 0 0 0 0 0 0 0 0
-0 0 0 0 0 0 0 0 0 0 0 0 0 0 0 0 0 0 0 0 0 0 0 0 0 0 0 0 0 0 0 -0
-0 0 0 0 0 0 0 0 0 0 0 0 0 0 0 0 0 0 0 0 0 0 0 0 0 0 0 -0 0 0 0 0
0 0 0 0 0 0 0 0 0 0 0 0 0 0 0 0 0 0 0 0 0 0 0 0 0 0 0 0 0 0 0 0
0 0 0 0 0 0 0 0 0 0 0 0 0 0 0 0 0 0 0 0 0 0 0 0 0 0 0 0 0 0 0 0
0 0 0 0 0 0 0 0 0 0 0 0 0 0 0 0 0 0 0 0 0 0 0 0 0 0 0 0 0 0 0 0
0 0 0 0 0 0 0 0 0 0 0 0 0 0 0 0 0 0 0 0 0 0 0 0 0 0 0 0 0 0 0 0
0 0 0 0 0 0 0 0 0 0 0 0 0 0 0 0 0 0 0 0 0 0 0 0 0 0 0 0 0 0 0 0
0 0 0 0 0 0 0 0 0 0 0 0 0 0 0 0 0 0 0 0 0 0 0 0 0 0 0 0 0 0 0 0
0 0 0 0 0 0 0 0 0 0 0 0 0 0 0 0 0 0 0 0 0 0 0 0 0 0 0 0 0 0 0 0
Wind_Speed_500mb
19 17 17 18 17 19 19 19 21 24 25 23 21 22 23 25 25 26 27 29 30 30 33 36 38 43 49 53 55 53 48 45
18 16 16 17 16 16 18 18 20 23 22 20 19 19 21 24 24 23 25 29 32 33 33 34 36 38 40 44 46 48 43 45
19 14 14 14 15 15 14 17 20 21 17 16 15 17 18 21 22 21 18 20 26 31 34 37 38 37 37 36 37 40 40 39
19 14 12 12 11 10 12 16 18 16 14 14 15 18 17 16 18 25 26 26 28 32 36 35 36 36 31 25 27 31 31 29
18 13 11 9 7 10 12 14 14 13 12 12 12 12 14 13 12 16 22 26 25 23 25 27 25 25 26 20 23 27 27 27
16 13 10 8 7 9 10 10 11 11 10 11 11 11 9 8 7 9 11 15 18 16 15 15 14 12 12 14 15 19 22 24
16 13 11 8 8 7 7 6 6 7 7 8 11 14 13 14 14 16 19 21 24 25 24 22 20 19 10 2 4 12 12 12
18 15 12 10 8 4 1 3 5 7 8 8 10 14 17 19 21 21 24 26 27 28 31 32 32 29 25 23 19 11 9 12
23 17 15 13 12 9 7 6 6 5 6 8 11 12 13 15 14 16 17 17 19 20 20 22 22 22 24 27 26 29 31 30
30 25 22 19 20 19 16 15 11 7 3 2 4 4 7 8 7 8 10 12 13 13 14 15 16 18 18 17 15 15 14 15
32 31 29 26 29 30 28 26 21 18 14 12 10 9 8 7 9 11 11 11 12 12 11 12 12 12 13 12 12 12 12 11
34 34 32 34 38 39 39 37 28 28 25 22 19 17 15 13 11 11 10 10 10 10 10 8 8 9 10 9 10 9 9 10
39 34 34 40 46 46 49 35 39 37 35 31 28 26 24 21 19 17 15 14 13 12 11 10 10 9 7 5 5 7 8 9
44 44 36 40 51 56 47 46 47 48 42 39 37 35 32 30 28 26 23 21 19 17 15 14 12 12 12 12 10 10 11 13
47 48 47 42 47 57 56 52 54 59 53 46 46 43 41 39 36 34 31 29 28 26 24 22 21 21 22 20 20 21 22 22
50 49 49 44 48 49 54 59 60 64 63 57 54 51 49 48 45 42 38 37 36 33 32 31 28 25 27 29 29 29 31 34
47 48 49 47 45 46 46 55 63 68 70 67 63 59 56 54 52 49 46 43 42 40 40 39 37 34 35 36 36 37 37 43
49 49 48 47 46 39 41 48 59 66 70 71 70 69 64 60 58 56 51 49 48 46 46 47 47 45 44 45 45 45 44 48
44 45 44 43 42 37 40 43 49 55 63 70 72 71 68 65 63 60 59 57 53 49 50 50 51 52 51 51 53 55 52 53
40 40 41 40 36 34 36 43 44 47 54 59 62 67 66 66 67 66 63 61 60 58 54 51 55 58 55 54 55 57 59 58
Wind_Direction_500mb
312 308 305 302 303 308 310 313 314 314 312 309 310 310 308 307 310 313 314 308 302 298 298 295 287 282 273 267 264 263 264 243
321 316 309 304 312 312 318 325 327 324 320 312 312 306 303 305 312 324 319 311 311 313 315 308 303 297 288 280 270 262 263 256
326 317 311 309 316 320 332 341 336 332 328 323 315 307 303 301 312 314 315 308 305 305 303 303 302 302 297 286 264 254 257 257
330 326 313 312 322 329 345 347 341 342 339 333 327 313 310 308 306 307 310 311 312 312 309 308 306 299 292 298 279 266 256 250
333 329 322 325 330 335 347 352 355 4 1 356 345 334 327 325 317 311 316 318 320 321 317 307 300 297 296 285 271 261 256 257
332 328 323 327 323 331 343 356 13 21 30 30 25 31 26 10 10 8 354 356 2 358 345 342 342 325 295 296 270 259 264 263
330 323 311 304 309 320 348 2 31 41 48 51 46 52 58 49 48 50 47 45 41 41 31 27 21 19 17 355 267 256 257 241
321 310 296 287 280 260 201 85 81 80 76 63 67 70 72 64 59 57 58 58 57 59 57 58 55 53 51 56 57 67 121 131
312 294 280 269 252 225 197 172 157 135 104 86 75 74 71 75 67 54 53 56 50 44 45 53 61 64 66 61 63 65 65 69
301 290 275 259 246 236 231 224 214 205 188 137 90 63 28 20 29 35 29 28 34 40 41 37 35 45 47 51 53 67 81 87
296 283 275 264 251 244 241 240 237 240 244 245 251 262 272 289 310 327 343 355 1 11 21 22 29 29 36 40 48 50 60 70
312 284 273 261 257 251 247 248 248 248 249 254 257 258 255 257 268 284 298 309 319 330 343 0 16 20 23 22 19 14 17 24
311 308 282 266 262 260 254 253 248 255 256 256 258 259 261 262 263 264 266 273 284 293 308 319 328 336 342 343 342 340 340 339
305 296 293 277 265 264 264 255 251 257 260 260 260 260 261 262 264 267 270 273 274 278 285 289 292 294 296 300 300 299 302 300
305 301 296 286 275 267 265 260 254 254 257 259 260 261 262 263 264 266 267 269 271 273 276 276 281 286 291 292 292 293 294 292
309 302 304 300 281 271 263 257 253 254 255 256 258 260 262 263 266 268 268 269 272 275 276 277 276 276 277 280 283 286 287 287
316 308 306 306 294 279 271 260 254 250 252 253 256 259 261 264 266 267 269 269 270 272 274 275 276 277 278 279 280 282 284 285
329 324 316 309 306 293 278 264 257 253 253 255 255 257 259 262 266 269 268 269 270 271 274 276 279 280 279 278 279 278 278 278
335 333 327 321 321 304 284 274 268 262 257 255 256 257 258 260 264 268 269 270 269 268 270 273 275 275 276 278 280 280 279 279
340 336 338 332 327 321 302 286 281 274 265 261 258 258 259 260 261 264 267 270 272 273 271 272 273 275 276 276 276 278 280 281
Wind_Speed_850mb
19 17 17 18 17 19 19 19 21 24 25 23 21 22 23 25 25 26 27 29 30 30 33 36 38 43 49 53 55 53 48 45
18 16 16 17 16 16 18 18 20 23 22 20 19 19 21 24 24 23 25 29 32 33 33 34 36 38 40 44 46 48 43 45
19 14 14 14 15 15 14 17 20 21 17 16 15 17 18 21 22 21 18 20 26 31 34 37 38 37 37 36 37 40 40 39
19 14 12 12 11 10 12 16 18 16 14 14 15 18 17 16 18 25 26 26 28 32 36 35 36 36 31 25 27 31 31 29
18 13 11 9 7 10 12 14 14 13 12 12 12 12 14 13 12 16 22 26 25 23 25 27 25 25 26 20 23 27 27 27
16 13 10 8 7 9 10 10 11 11 10 11 11 11 9 8 7 9 11 15 18 16 15 15 14 12 12 14 15 19 22 24
16 13 11 8 8 7 7 6 6 7 7 8 11 14 13 14 14 16 19 21 24 25 24 22 20 19 10 2 4 12 12 12
18 15 12 10 8 4 1 3 5 7 8 8 10 14 17 19 21 21 24 26 27 28 31 32 32 29 25 23 19 11 9 12
23 17 15 13 12 9 7 6 6 5 6 8 11 12 13 15 14 16 17 17 19 20 20 22 22 22 24 27 26 29 31 30
30 25 22 19 20 19 16 15 11 7 3 2 4 4 7 8 7 8 10 12 13 13 14 15 16 18 18 17 15 15 14 15
32 31 29 26 29 30 28 26 21 18 14 12 10 9 8 7 9 11 11 11 12 12 11 12 12 12 13 12 12 12 12 11
34 34 32 34 38 39 39 37 28 28 25 22 19 17 15 13 11 11 10 10 10 10 10 8 8 9 10 9 10 9 9 10
39 34 34 40 46 46 49 35 39 37 35 31 28 26 24 21 19 17 15 14 13 12 11 10 10 9 7 5 5 7 8 9
44 44 36 40 51 56 47 46 47 48 42 39 37 35 32 30 28 26 23 21 19 17 15 14 12 12 12 12 10 10 11 13
47 48 47 42 47 57 56 52 54 59 53 46 46 43 41 39 36 34 31 29 28 26 24 22 21 21 22 20 20 21 22 22
50 49 49 44 48 49 54 59 60 64 63 57 54 51 49 48 45 42 38 37 36 33 32 31 28 25 27 29 29 29 31 34
47 48 49 47 45 46 46 55 63 68 70 67 63 59 56 54 52 49 46 43 42 40 40 39 37 34 35 36 36 37 37 43
49 49 48 47 46 39 41 48 59 66 70 71 70 69 64 60 58 56 51 49 48 46 46 47 47 45 44 45 45 45 44 48
44 45 44 43 42 37 40 43 49 55 63 70 72 71 68 65 63 60 59 57 53 49 50 50 51 52 51 51 53 55 52 53
40 40 41 40 36 34 36 43 44 47 54 59 62 67 66 66 67 66 63 61 60 58 54 51 55 58 55 54 55 57 59 58
Wind_Direction_850mb
312 308 305 302 303 308 310 313 314 314 312 309 310 310 308 307 310 313 314 308 302 298 298 295 287 282 273 267 264 263 264 243
321 316 309 304 312 312 318 325 327 324 320 312 312 306 303 305 312 324 319 311 311 313 315 308 303 297 288 280 270 262 263 256
326 317 311 309 316 320 332 341 336 332 328 323 315 307 303 301 312 314 315 308 305 305 303 303 302 302 297 286 264 254 257 257
330 326 313 312 322 329 345 347 341 342 339 333 327 313 310 308 306 307 310 311 312 312 309 308 306 299 292 298 279 266 256 250
333 329 322 325 330 335 347 352 355 4 1 356 345 334 327 325 317 311 316 318 320 321 317 307 300 297 296 285 271 261 256 257
332 328 323 327 323 331 343 356 13 21 30 30 25 31 26 10 10 8 354 356 2 358 345 342 342 325 295 296 270 259 264 263
330 323 311 304 309 320 348 2 31 41 48 51 46 52 58 49 48 50 47 45 41 41 31 27 21 19 17 355 267 256 257 241
321 310 296 287 280 260 201 85 81 80 76 63 67 70 72 64 59 57 58 58 57 59 57 58 55 53 51 56 57 67 121 131
312 294 280 269 252 225 197 172 157 135 104 86 75 74 71 75 67 54 53 56 50 44 45 53 61 64 66 61 63 65 65 69
301 290 275 259 246 236 231 224 214 205 188 137 90 63 28 20 29 35 29 28 34 40 41 37 35 45 47 51 53 67 81 87
296 283 275 264 251 244 241 240 237 240 244 245 251 262 272 289 310 327 343 355 1 11 21 22 29 29 36 40 48 50 60 70
312 284 273 261 257 251 247 248 248 248 249 254 257 258 255 257 268 284 298 309 319 330 343 0 16 20 23 22 19 14 17 24
311 308 282 266 262 260 254 253 248 255 256 256 258 259 261 262 263 264 266 273 284 293 308 319 328 336 342 343 342 340 340 339
305 296 293 277 265 264 264 255 251 257 260 260 260 260 261 262 264 267 270 273 274 278 285 289 292 294 296 300 300 299 302 300
305 301 296 286 275 267 265 260 254 254 257 259 260 261 262 263 264 266 267 269 271 273 276 276 281 286 291 292 292 293 294 292
309 302 304 300 281 271 263 257 253 254 255 256 258 260 262 263 266 268 268 269 272 275 276 277 276 276 277 280 283 286 287 287
316 308 306 306 294 279 271 260 254 250 252 253 256 259 261 264 266 267 269 269 270 272 274 275 276 277 278 279 280 282 284 285
329 324 316 309 306 293 278 264 257 253 253 255 255 257 259 262 266 269 268 269 270 271 274 276 279 280 279 278 279 278 278 278
335 333 327 321 321 304 284 274 268 262 257 255 256 257 258 260 264 268 269 270 269 268 270 273 275 275 276 278 280 280 279 279
340 336 338 332 327 321 302 286 281 274 265 261 258 258 259 260 261 264 267 270 272 273 271 272 273 275 276 276 276 278 280 281